This is the latest recevied weather packets stored in our database for station/object KC9DRE. If no packets are shown the sender has not sent any weather packets the latest 10 day(s).
| Time | Temp. | Humidity | Pressure | Rain* | Wind** | Luminosity | Snow |
|---|---|---|---|---|---|---|---|
| 1778241833 | 11.11° C | 64% | 1015.9 hPa | 0 mm | - | 92 W/m² | - |
| 1778241530 | 10.56° C | 63% | 1015.7 hPa | 0 mm | - | 81 W/m² | - |
| 1778241227 | 10.56° C | 64% | 1015.7 hPa | 0 mm | - | 70 W/m² | - |
| 1778240924 | 10° C | 67% | 1015.5 hPa | 0 mm | - | 64 W/m² | - |
| 1778240621 | 8.89° C | 72% | 1015.5 hPa | 0 mm | - | 58 W/m² | - |
| 1778240317 | 8.33° C | 73% | 1015.5 hPa | 0 mm | - | 54 W/m² | - |
| 1778240016 | 6.67° C | 81% | 1015.5 hPa | 0 mm | - | 47 W/m² | - |
| 1778239712 | 5.56° C | 87% | 1015.5 hPa | 0 mm | - | 41 W/m² | - |
| 1778239409 | 5° C | 93% | 1015.5 hPa | 0 mm | - | 26 W/m² | - |
| 1778239105 | 4.44° C | 95% | 1015.5 hPa | 0 mm | - | 22 W/m² | - |
| 1778238803 | 4.44° C | 96% | 1015.4 hPa | 0 mm | - | 20 W/m² | - |
| 1778238500 | 4.44° C | 96% | 1015.4 hPa | 0 mm | - | 17 W/m² | - |
| 1778238198 | 4.44° C | 96% | 1015.3 hPa | 0 mm | - | 14 W/m² | - |
| 1778237897 | 4.44° C | 97% | 1015.3 hPa | 0 mm | - | 12 W/m² | - |
| 1778237594 | 3.89° C | 97% | 1015.3 hPa | 0 mm | - | 9 W/m² | - |
| 1778237291 | 3.89° C | 98% | 1015.1 hPa | 0 mm | - | 6 W/m² | - |
| 1778236988 | 3.89° C | 98% | 1015.2 hPa | 0 mm | - | 4 W/m² | - |
| 1778236685 | 3.89° C | 98% | 1015.2 hPa | 0 mm | - | 2 W/m² | - |
| 1778236382 | 3.89° C | 98% | 1015.4 hPa | 0 mm | - | 1 W/m² | - |
| 1778236079 | 3.89° C | 98% | 1015.1 hPa | 0 mm | - | 0 W/m² | - |
| 1778235777 | 3.89° C | 98% | 1015.1 hPa | 0 mm | - | 0 W/m² | - |
| 1778235474 | 3.89° C | 98% | 1015.2 hPa | 0 mm | - | 0 W/m² | - |
| 1778235172 | 3.89° C | 98% | 1015.1 hPa | 0 mm | - | 0 W/m² | - |
| 1778234869 | 3.89° C | 98% | 1015.2 hPa | 0 mm | - | 0 W/m² | - |
| 1778234567 | 3.89° C | 98% | 1015 hPa | 0 mm | - | 0 W/m² | - |
* Rain latest hour (hover to see other rain measurements)
** Current wind speed in m/s (hover to see current wind gust speed)